Showing default

TYVAK-0173, 48892

Orbit data source: Space-Track

TYVAK-0173, 48892 is a payload satellite owned by Echostar AU (AU) in SSO that was launched on Wed, 30 Jun 2021 UTC via an FALCON 9 launch vehicle from the Air Force Eastern Test Range (AFETR). Payload-class satellites include a variety of spacecraft equipped with specific instruments for various scientific and technological missions. These include communications satellites like Starlink; space stations such as the ISS; scientific satellites like the Hubble; Earth observation satellites from companies like Planet Labs, Umbra, and HawkEye 360; GPS; miniature CubeSats for education and research; and military/defense satellites.

Loading next visibility...
Identifier
48892, 2021-059P
Orbit
SSO
Country
Flag of AUAU / AUS
Related business
Manufacturer
Tyvak NSS
Mission
Operational Commercial Technology
Bus & Motor
CUBESAT 12U, Unknown motor
Mass
11 kg wet, 11 kg dry
Launch date (UTC)
2021-06-30 (4 years ago)
Launch vehicle
FALCON 9
Launch site
Air Force Eastern Test Range (AFETR)
Object type
Payload
Rocket body
Debris
Shape & HBR
Box + 2 Pan, 0.8 m
Radar Cross Section
0.155 m², Medium (>0.1 m² and < 1m²)

Expand to show TLE details & history
Last TLE update: 8 hours ago

TLE from 8 hours ago
0 TYVAK-0173
1 48892U 21059P   25308.80287095  .00002582  00000-0  34006-3 0  9998
2 48892  96.0071  76.0640 0010961  74.6321 285.6106 14.80634460235025
Epoch: 2025-11-04T19:16Z
TLE epoch observation values (Epoch: 2025-11-04T19:16:08.050Z)
Latitude
-0.00005°
Longitude
102.74581°
Altitude
628.336 km
Speed
7.545 km/s
True Right ascension
05h 04m 15s
True Declination
0° 00' 00"
Sunlit
Object was in full shadow at epoch
Visualization orbit readout
Latitude
Unknown
Longitude
Unknown
Altitude
Unknown
Speed
Unknown
Apparent Right ascension
Unknown
Apparent Declination
Unknown
Sunlit
N/A
Visualization observer readout
Local Sidereal Time
23:07:24
Azimuth
Unknown
Elevation
Unknown
Doppler factor
Unknown
Orbital elements
Apogee altitude
631.963 km
Perigee altitude
616.612 km
Semi-major axis
7,002.424 km
Eccentricity
0.0011
Inclination
96.0071°
RAAN
76.064°
Arg. of periapsis
74.6321°
True anomaly
285.48958°
Mean anomaly
285.6106°
Eccentric anomaly
285.5501°
Mean motion
3.704 °/min
Orbital period
97.19 mins
BSTAR
0.00034006
Loading maneuver chart data...
Computing Atmospheric mass density...

Documentation

Showing up to 5 results
|